Weather in Motru

Romania     44°48′04″N   22°58′44″E
temp.,
°C
wind,
m/s
gust,
m/s
humid.,
%
clouds,
%
prec.,
mm/h
press.,
hPa
HPBL,
m
28 february, sun
sun2823:00+7nw23680 0.0 103081
02:00+5w22750 0.0 103150
05:00+3wnw12780 0.0 103122
08:00+3nw12740 0.0 103231
11:00+8wsw22500 0.0 1032569
14:00+11sw34390 0.0 1031995
17:00+11sw33360 0.0 10301092
20:00+7n22530 0.0 103126
1 march, mon
mon123:00+5w22670 0.0 103126
02:00+3w127626 0.0 103022
05:00+2w127414 0.0 102922
08:00+3wnw237543 0.0 102994
11:00+9n344916 0.0 1029776
14:00+11nne33348 0.0 10301989
17:00+11e123431 0.0 10302042
20:00+7nne345745 0.0 1033114
2 march, tue
tue223:00+5nne236413 0.0 103470
02:00+3e25856 0.0 1035187
05:00+3se248954 0.0 1035339
08:00+3ssw348777 0.0 1036293
11:00+6sw336958 0.0 1035703
14:00+9wsw445936 0.0 1034640
17:00+10ssw34520 0.0 1032553
20:00+7wnw22660 0.0 103326
3 march, wed
wed323:00+5wnw22720 0.0 103323
02:00+4w12750 0.0 103322
05:00+3wsw11760 0.0 103222
08:00+3wsw11740 0.0 103224
11:00+9sw11490 0.0 1032332
14:00+13ssw21400 0.0 1030625
17:00+13ssw11410 0.0 1029510
20:00+9sw11560 0.0 102922
4 march, thu
thu423:00+7n11626 0.0 102922
02:00+6nnw016810 0.0 102722
05:00+5nnw11729 0.0 102622
08:00+5n11715 0.0 102422
11:00+10ssw11549 0.0 1022466
14:00+13sw22426 0.0 1019789
17:00+13sw33456 0.0 1017525
20:00+9wsw115817 0.0 101722